Location: Pinhead Observatory
(34.4473°N, 118.1985°W)
Time: 01:55:20
(UTC-07:00)

Daily predictions for brighter satellites

Satellite Brightness Start Highest point End
(mag) Time Altitude Azimuth Time Altitude Azimuth Time Altitude Azimuth
ATLAS 5 CENTAUR R/B 4.5 00:15:19 10° NNW 00:17:13 22° NNW 00:17:13 22° NNW
Resurs 1-4 Rocket 4.5 02:02:59 10° NE 02:04:38 18° NE 02:04:38 18° NE
Cosmos 1833 Rocket 4.5 02:23:18 28° NNE 02:23:18 28° NNE 02:25:51 10° NNE
Lacrosse 5 rocket 4.4 02:47:04 13° NNE 02:47:04 13° NNE 02:47:40 10° NNE
ARIANE 5 R/B 3.9 02:50:40 10° NNE 02:54:03 36° NE 02:54:03 36° NE
USA 238 DEB 4.3 03:05:08 45° ESE 03:05:08 45° ESE 03:11:37 10° NE
USA 238 4.3 03:05:13 45° ESE 03:05:13 45° ESE 03:11:43 10° NE
CZ-2D R/B 3.2 03:06:36 10° N 03:09:59 40° N 03:09:59 40° N
SL-16 R/B 3.1 03:21:58 46° NW 03:21:58 46° NW 03:26:24 10° NNW
IRS-1D 4.5 03:17:03 10° N 03:20:30 42° N 03:20:30 42° N
Cosmos 1980 Rocket 2.6 03:16:45 10° NNW 03:21:31 59° NNE 03:21:31 59° NNE
Cosmos 1697 Rocket 4.4 03:19:06 10° NNW 03:21:08 23° NNW 03:21:08 23° NNW
Cosmos 1428 Rocket 4.5 03:21:22 10° N 03:27:33 74° E 03:27:57 71° ESE
Cosmos 841 Rocket 4.3 03:28:29 43° E 03:28:29 43° E 03:33:19 10° NNE
Cosmos 2082 Rocket 3.8 03:30:21 23° NW 03:30:21 23° NW 03:33:36 10° N
ADEOS II 3.3 03:27:21 10° NNE 03:32:09 35° E 03:33:18 31° SE
Cosmos 1375 Rocket 4.4 03:32:20 84° SSE 03:32:30 85° ESE 03:39:04 10° NNE
ADEOS 3.8 03:29:07 10° NNE 03:34:05 64° E 03:34:05 64° E
SL-16 R/B 4.1 03:30:31 10° N 03:35:21 28° ENE 03:40:08 10° ESE
Cosmos 2058 Rocket 4.2 03:31:18 10° N 03:35:26 41° ENE 03:35:26 41° ENE
Cosmos 2228 4.1 03:34:54 10° N 03:38:16 42° NE 03:38:16 42° NE
Resurs 1-4 Rocket 3.4 03:42:34 10° N 03:45:43 27° NW 03:45:43 27° NW
Meteor 1-22 Rocket 4.2 03:43:51 10° N 03:49:47 87° ENE 03:50:47 63° SSE
Cosmos 1842 4.4 03:52:07 42° NNE 03:52:07 42° NNE 03:54:48 10° N
Cosmos 2322 Rocket 3.7 03:45:45 10° N 03:50:54 35° ENE 03:55:59 10° SE
Cosmos 1892 Rocket 4.5 03:52:40 40° NNW 03:52:40 40° NNW 03:55:38 10° N
Cosmos 292 Rocket 4.2 03:52:10 54° SE 03:52:34 56° ESE 03:57:17 10° NNE
ATLAS 3B R/B 2.7 03:50:47 55° SSW 03:52:34 84° ESE 03:59:37 10° NNE
SJ 16-02 4.4 03:51:11 10° NNE 03:53:44 15° ENE 03:56:16 10° E
Cosmos 1763 Rocket 3.5 03:54:44 69° NW 03:54:44 69° NW 03:59:49 10° NNE
Cosmos 2180 Rocket 4.4 03:56:16 61° WSW 03:56:57 65° W 04:03:20 10° N
NOSS 3-2 (A) 3.6 03:57:37 46° S 03:59:07 61° ESE 04:05:19 10° NE
Cosmos 2279 Rocket 4.4 04:06:08 43° W 04:06:15 43° W 04:12:10 10° N
Cosmos 1805 3.7 04:06:35 10° N 04:09:41 55° N 04:09:41 55° N
Cosmos 1953 4.0 04:08:07 10° NNE 04:11:50 33° E 04:15:30 10° SE
Cosmos 1898 Rocket 3.8 04:08:31 10° NNW 04:12:50 47° WNW 04:12:50 47° WNW
CENTAUR R/B 4.5 04:09:37 10° SSE 04:13:45 21° ESE 04:18:13 10° ENE
SEDSat Delta rocket 3.9 04:14:00 47° WSW 04:15:48 68° S 04:22:34 10° E
Cosmos 44 3.9 04:10:51 10° NNW 04:16:07 65° ENE 04:21:28 10° SE
USA 215 3.2 04:10:58 10° NE 04:17:32 90° NW 04:20:18 38° SW
PSLV R/B 4.2 04:21:51 41° E 04:21:51 41° E 04:23:57 10° ENE
Cosmos 1937 Rocket 3.4 04:18:36 10° NNW 04:23:41 59° WSW 04:25:29 37° SSW
Meteosat 1 Rocket2 4.4 04:25:11 38° SW 04:27:18 53° S 04:35:58 10° ESE
ERBS 3.2 04:28:35 38° SE 04:28:58 40° SE 04:32:11 10° NE
ARIANE 5 R/B 4.2 04:30:57 10° NNW 04:34:23 18° WNW 04:34:23 18° WNW
Okean O Rocket 3.6 04:32:18 10° NE 04:35:58 26° E 04:39:37 10° SSE
Cosmos 1758 3.1 04:34:08 10° N 04:38:07 77° W 04:40:21 25° S
Cosmos 990 Rocket 4.3 04:33:47 10° NNW 04:38:36 41° WSW 04:40:21 31° SW
Cosmos 44 Rocket 3.5 04:40:18 10° NNW 04:45:28 80° ENE 04:50:40 10° SSE
Cosmos 1733 3.1 04:42:40 10° N 04:46:32 74° W 04:49:46 14° S
Cosmos 836 Rocket 4.4 04:44:04 25° SSW 04:47:10 75° WNW 04:52:23 10° NNE
Delta 2 Rocket 4.2 04:48:36 28° SW 04:51:38 67° SSE 04:57:06 10° E
Cosmos 2150 Rocket 4.4 04:47:52 10° NNW 04:53:03 44° WSW 04:58:09 10° S
Cosmos 2266 Rocket 4.2 04:48:53 10° NNW 04:54:41 47° W 05:00:32 10° SSW
DNEPR-1 R/B 4.3 04:55:33 26° W 04:57:03 34° NW 05:01:08 10° NNE
PSLV R/B 3.5 04:54:11 10° N 04:58:19 60° WNW 05:01:12 19° SSW
Cosmos 2360 Rocket 2.7 04:58:17 10° NNW 05:03:52 62° ENE 05:09:25 10° SSE
CZ-4B R/B 2.9 05:04:35 10° N 05:08:42 63° WNW 05:12:20 12° SSW
Cosmos 1812 Rocket 3.6 05:04:28 10° NNW 05:08:51 57° W 05:13:11 10° S
USA 161 3.1 05:07:24 10° SSE 05:10:16 40° ENE 05:13:06 10° N
ADEOS II 3.3 05:07:29 10° NNW 05:11:37 24° WNW 05:14:16 16° WSW
Cosmos 1470 3.1 05:09:10 10° NNW 05:12:57 44° W 05:16:43 10° SSW
Cosmos 1758 Rocket 3.5 05:11:46 10° S 05:16:04 88° E 05:20:26 10° N
SL-16 R/B 2.8 05:14:20 10° NW 05:19:25 35° WSW 05:24:29 10° SSW
Cosmos 1238 Rocket 4.1 05:13:18 10° SSW 05:19:37 68° W 05:26:20 10° N
BREEZE-M DEB (TANK) 3.7 05:18:43 12° WNW 05:19:55 16° NNW 05:21:35 10° NNE
Meteor 1-24 Rocket 4.3 05:14:52 10° S 05:20:01 56° E 05:25:14 10° NNE
COSMOS 2428 4.5 05:18:11 10° N 05:23:24 36° ENE 05:28:35 10° SE
Cosmos 1707 3.7 05:23:34 13° SW 05:26:19 27° WNW 05:29:40 10° NNW
SJ 16-02 1.8 05:28:21 10° NNW 05:32:29 40° WSW 05:36:35 10° S
NOSS 3-2 (C) 4.1 05:28:09 12° WSW 05:33:13 38° NW 05:39:10 10° NNE
Centaur D AC-28 3.9 05:07:28 13° WSW 05:33:26 58° S 05:38:48 10° ESE
Cosmos 2322 Rocket 3.1 05:30:07 10° NW 05:34:42 26° WSW 05:39:16 10° SSW
Meteor 1-16 Rocket 4.1 05:31:14 10° NNW 05:36:49 70° W 05:42:12 10° S
ATLAS CENTAUR R/B 2.0 05:32:49 10° NNW 05:37:19 72° ENE 05:42:03 10° SE
Cosmos 1315 Rocket 4.2 05:37:32 10° SSE 05:41:23 44° E 05:45:12 10° NNE
ATLAS 3B R/B 4.3 05:39:00 10° W 05:44:01 20° NW 05:48:57 10° N
Meteor 1-31 Rocket 3.1 05:42:11 10° N 05:45:53 45° WNW 05:49:32 10° SSW
CZ-2C R/B 3.7 05:42:38 10° NNE 05:47:01 41° E 05:51:19 10° S
Cosmos 1953 4.2 05:45:53 10° WNW 05:47:52 13° W 05:49:51 10° WSW
Cosmos 1400 Rocket 2.9 05:46:02 10° SSW 05:49:51 55° W 05:53:45 10° N
